TimeCDT,TemperatureF,Dew PointF,Humidity,Sea Level PressureIn,VisibilityMPH,Wind Direction,Wind SpeedMPH,Gust SpeedMPH,PrecipitationIn,Events,Conditions,WindDirDegrees,DateUTC
12:15 AM,52.0,30.2,43,30.03,10.0,South,19.6,-,N/A,,Clear,170,2013-04-05 05:15:00
12:35 AM,51.8,29.8,43,30.03,10.0,South,18.4,27.6,N/A,,Clear,170,2013-04-05 05:35:00
12:55 AM,51.3,30.0,44,30.03,10.0,South,19.6,-,N/A,,Clear,180,2013-04-05 05:55:00
1:15 AM,51.8,30.2,44,30.02,10.0,South,19.6,26.5,N/A,,Clear,180,2013-04-05 06:15:00
1:35 AM,50.7,30.7,46,30.02,10.0,South,18.4,-,N/A,,Clear,180,2013-04-05 06:35:00
1:55 AM,49.5,31.1,49,30.02,10.0,South,15.0,-,N/A,,Clear,190,2013-04-05 06:55:00
2:15 AM,48.6,31.5,52,30.02,10.0,SSW,11.5,-,N/A,,Clear,200,2013-04-05 07:15:00
2:35 AM,47.8,31.6,53,30.01,10.0,SSW,11.5,-,N/A,,Clear,200,2013-04-05 07:35:00
2:55 AM,47.3,31.5,54,30.01,10.0,SSW,11.5,-,N/A,,Clear,210,2013-04-05 07:55:00
3:15 AM,47.1,31.3,54,30.00,10.0,SSW,13.8,-,N/A,,Clear,210,2013-04-05 08:15:00
3:35 AM,46.9,31.3,55,29.99,10.0,SSW,11.5,-,N/A,,Clear,200,2013-04-05 08:35:00
3:55 AM,46.2,31.5,56,29.99,10.0,SW,6.9,-,N/A,,Clear,220,2013-04-05 08:55:00
4:15 AM,45.5,31.6,58,29.98,10.0,South,6.9,-,N/A,,Clear,190,2013-04-05 09:15:00
4:55 AM,46.0,31.5,57,29.96,10.0,South,8.1,-,N/A,,Clear,170,2013-04-05 09:55:00
5:15 AM,45.3,31.6,59,29.96,10.0,South,5.8,-,N/A,,Clear,180,2013-04-05 10:15:00
5:35 AM,50.7,30.9,47,29.95,10.0,SSW,16.1,20.7,N/A,,Clear,210,2013-04-05 10:35:00
5:55 AM,52.0,29.7,42,29.94,10.0,SSW,17.3,-,N/A,,Clear,200,2013-04-05 10:55:00
6:15 AM,53.6,28.4,38,29.94,10.0,SSW,15.0,-,N/A,,Clear,200,2013-04-05 11:15:00
6:35 AM,53.1,28.4,39,29.93,10.0,SSW,17.3,-,N/A,,Clear,200,2013-04-05 11:35:00
6:55 AM,53.8,27.5,36,29.93,10.0,SSW,16.1,21.9,N/A,,Clear,200,2013-04-05 11:55:00
7:15 AM,54.1,27.1,35,29.92,10.0,SSW,12.7,18.4,N/A,,Clear,210,2013-04-05 12:15:00
7:35 AM,54.7,26.2,33,29.92,10.0,SSW,15.0,-,N/A,,Clear,200,2013-04-05 12:35:00
7:55 AM,55.4,25.7,32,29.91,10.0,South,20.7,26.5,N/A,,Clear,180,2013-04-05 12:55:00
8:15 AM,56.3,25.7,31,29.91,10.0,South,23.0,29.9,N/A,,Clear,190,2013-04-05 13:15:00
8:35 AM,58.3,26.2,29,29.90,10.0,South,25.3,31.1,N/A,,Clear,190,2013-04-05 13:35:00
8:55 AM,57.2,26.6,31,29.89,10.0,South,24.2,29.9,N/A,,Clear,180,2013-04-05 13:55:00
9:15 AM,56.5,27.5,33,29.88,10.0,South,21.9,-,N/A,,Clear,180,2013-04-05 14:15:00
9:35 AM,56.7,27.9,33,29.88,10.0,South,21.9,27.6,N/A,,Clear,190,2013-04-05 14:35:00
9:55 AM,58.8,27.3,30,29.88,10.0,South,20.7,-,N/A,,Clear,190,2013-04-05 14:55:00
10:15 AM,58.5,27.9,31,29.88,10.0,SSW,13.8,25.3,N/A,,Clear,210,2013-04-05 15:15:00
10:35 AM,58.5,28.2,32,29.87,10.0,SW,10.4,18.4,N/A,,Clear,220,2013-04-05 15:35:00
10:55 AM,59.5,28.6,31,29.87,10.0,SSW,12.7,-,N/A,,Clear,210,2013-04-05 15:55:00
11:15 AM,61.2,28.8,29,29.86,10.0,SSW,10.4,-,N/A,,Clear,210,2013-04-05 16:15:00
11:55 AM,65.1,27.0,24,29.84,10.0,South,10.4,-,N/A,,Clear,190,2013-04-05 16:55:00
12:15 PM,66.2,26.1,22,29.83,10.0,SSW,12.7,-,N/A,,Clear,200,2013-04-05 17:15:00
12:35 PM,67.8,25.7,21,29.82,10.0,SW,10.4,16.1,N/A,,Clear,220,2013-04-05 17:35:00
12:55 PM,69.4,25.0,19,29.81,10.0,SW,13.8,-,N/A,,Clear,220,2013-04-05 17:55:00
1:15 PM,71.2,25.3,18,29.79,10.0,SSW,13.8,18.4,N/A,,Clear,200,2013-04-05 18:15:00
1:35 PM,71.8,24.3,17,29.78,10.0,South,9.2,-,N/A,,Clear,190,2013-04-05 18:35:00
1:55 PM,74.5,23.7,15,29.77,10.0,SW,6.9,-,N/A,,Clear,230,2013-04-05 18:55:00
2:15 PM,73.6,21.0,14,29.76,10.0,West,4.6,-,N/A,,Clear,270,2013-04-05 19:15:00
2:55 PM,75.6,21.7,13,29.73,10.0,WSW,6.9,-,N/A,,Clear,250,2013-04-05 19:55:00
3:15 PM,75.4,22.6,14,29.73,10.0,NW,4.6,-,N/A,,Clear,310,2013-04-05 20:15:00
3:35 PM,75.7,20.8,13,29.72,10.0,WNW,3.5,-,N/A,,Clear,300,2013-04-05 20:35:00
3:55 PM,75.2,20.8,13,29.71,10.0,Calm,Calm,-,N/A,,Clear,0,2013-04-05 20:55:00
4:15 PM,76.6,19.4,12,29.70,10.0,West,3.5,-,N/A,,Clear,260,2013-04-05 21:15:00
4:35 PM,76.6,19.6,12,29.70,10.0,WNW,3.5,-,N/A,,Clear,300,2013-04-05 21:35:00
4:55 PM,76.8,17.1,11,29.70,10.0,Calm,Calm,-,N/A,,Scattered Clouds,0,2013-04-05 21:55:00
5:15 PM,77.9,16.9,10,29.69,10.0,NW,4.6,-,N/A,,Clear,310,2013-04-05 22:15:00
5:35 PM,76.6,16.2,10,29.69,10.0,Calm,Calm,-,N/A,,Clear,0,2013-04-05 22:35:00
5:55 PM,75.9,14.0,10,29.69,10.0,Calm,Calm,-,N/A,,Clear,0,2013-04-05 22:55:00
6:15 PM,77.0,13.8,9,29.68,10.0,Calm,Calm,-,N/A,,Clear,0,2013-04-05 23:15:00
6:35 PM,76.6,14.5,10,29.68,10.0,Calm,Calm,-,N/A,,Clear,0,2013-04-05 23:35:00
6:55 PM,73.8,21.4,14,29.67,10.0,Calm,Calm,-,N/A,,Clear,0,2013-04-05 23:55:00
7:15 PM,71.4,24.3,17,29.66,10.0,SE,3.5,-,N/A,,Clear,130,2013-04-06 00:15:00
7:35 PM,69.6,28.4,22,29.66,10.0,SE,3.5,-,N/A,,Clear,140,2013-04-06 00:35:00
7:55 PM,67.1,28.6,24,29.65,10.0,SE,6.9,-,N/A,,Clear,140,2013-04-06 00:55:00
8:15 PM,64.6,28.8,26,29.65,10.0,SE,8.1,-,N/A,,Clear,140,2013-04-06 01:15:00
8:55 PM,62.1,30.7,31,29.63,10.0,SE,9.2,-,N/A,,Clear,140,2013-04-06 01:55:00
9:15 PM,61.7,30.6,31,29.63,10.0,SE,9.2,-,N/A,,Clear,140,2013-04-06 02:15:00
9:35 PM,61.2,28.4,29,29.63,10.0,SE,8.1,-,N/A,,Clear,140,2013-04-06 02:35:00
9:55 PM,59.5,28.4,31,29.63,10.0,SE,5.8,-,N/A,,Clear,140,2013-04-06 02:55:00
10:15 PM,60.3,30.6,33,29.64,10.0,East,3.5,-,N/A,,Clear,90,2013-04-06 03:15:00
10:35 PM,58.6,31.8,36,29.63,10.0,Calm,Calm,-,N/A,,Clear,0,2013-04-06 03:35:00
10:55 PM,57.4,31.6,38,29.63,10.0,Calm,Calm,-,N/A,,Clear,0,2013-04-06 03:55:00
11:15 PM,57.4,30.9,37,29.63,10.0,Calm,Calm,-,N/A,,Clear,0,2013-04-06 04:15:00
11:35 PM,56.3,33.1,41,29.62,10.0,Calm,Calm,-,N/A,,Clear,0,2013-04-06 04:35:00
11:55 PM,54.9,34.9,47,29.64,10.0,SW,9.2,-,N/A,,Clear,220,2013-04-06 04:55:00